Location: Guadanolo
(41.9167°N, 12.9333°E)
Time: 05:14:03
(UTC+00:00)

Cosmos 2184 Rocket - Pass Details

Date: 16 September 2019
Orbit: 960 x 1001 km, 82.9° (Epoch: 19 October)

Event Time Altitude Azimuth Distance (km) Brightness Sun altitude
Rises 18:06:06 0° 353° (N) 3,665 7.3 -9.9°
Reaches altitude 10° 18:08:36 10° 355° (N) 2,719 6.6 -10.4°
Maximum altitude 18:14:51 79° 82° (E) 999 4.0 -11.5°
Drops below altitude 10° 18:21:06 10° 169° (S) 2,729 6.1 -12.6°
Sets 18:23:38 0° 171° (S) 3,680 6.8 -13.1°
